GLO2796 SBSN-SBBE

Flight info

Callsign GLO2796
Flight time 1h 8m
Altitude 37000
Route EMAKE DCT PAKUT
Aircraft B737/M-SDE2E3FGHIRWXY/LB1

Departure

Time 2026-04-23 12:11
Airport Santarém - Maestro Wilson Fonseca International Airport (SBSN)

Arrival

Time 2026-04-23 13:19
Airport Val de Cans/Júlio Cezar Ribeiro International Airport (SBBE)
Time Latitude Longitude Altitude Speed Heading
2026-04-23 11:43 -2.42348 -54.78385 190 ft 0 kts 188°
2026-04-23 12:04 -2.42331 -54.78383 185 ft 4 kts 175°
2026-04-23 12:04 -2.42307 -54.78390 195 ft 4 kts 130°
2026-04-23 12:04 -2.42300 -54.78404 195 ft 0 kts 97°
2026-04-23 12:09 -2.42309 -54.78349 190 ft 11 kts 102°
2026-04-23 12:09 -2.42307 -54.78315 190 ft 7 kts 51°
2026-04-23 12:09 -2.42237 -54.78279 193 ft 12 kts 23°
2026-04-23 12:09 -2.42161 -54.78245 191 ft 12 kts 24°
2026-04-23 12:10 -2.42085 -54.78221 190 ft 10 kts 349°
2026-04-23 12:10 -2.42073 -54.78267 199 ft 8 kts 251°
2026-04-23 12:10 -2.42091 -54.78370 191 ft 40 kts 261°
2026-04-23 12:10 -2.42177 -54.78891 191 ft 108 kts 261°
2026-04-23 12:11 -2.42336 -54.79853 256 ft 170 kts 261°
2026-04-23 12:11 -2.42534 -54.81104 861 ft 191 kts 261°
2026-04-23 12:11 -2.42747 -54.82452 1789 ft 196 kts 259°
2026-04-23 12:11 -2.42968 -54.83775 3005 ft 197 kts 260°
2026-04-23 12:12 -2.43211 -54.85240 3452 ft 233 kts 259°
2026-04-23 12:12 -2.43847 -54.86839 3859 ft 264 kts 230°
2026-04-23 12:12 -2.45382 -54.87849 4847 ft 271 kts 193°
2026-04-23 12:12 -2.47227 -54.87847 5970 ft 272 kts 163°
2026-04-23 12:13 -2.48878 -54.86938 7090 ft 274 kts 137°
2026-04-23 12:13 -2.50211 -54.85556 8205 ft 278 kts 130°
2026-04-23 12:13 -2.51458 -54.84064 9313 ft 282 kts 128°
2026-04-23 12:13 -2.52714 -54.82537 10358 ft 288 kts 128°
2026-04-23 12:14 -2.54029 -54.80961 11129 ft 301 kts 129°
2026-04-23 12:14 -2.55402 -54.79343 12072 ft 308 kts 129°
2026-04-23 12:14 -2.56803 -54.77715 13110 ft 311 kts 129°
2026-04-23 12:14 -2.58232 -54.76065 14104 ft 316 kts 130°
2026-04-23 12:15 -2.59688 -54.74394 14988 ft 322 kts 129°
2026-04-23 12:15 -2.61173 -54.72692 15891 ft 327 kts 129°
2026-04-23 12:15 -2.62680 -54.70967 16836 ft 332 kts 129°
2026-04-23 12:15 -2.64210 -54.69216 17758 ft 337 kts 129°
2026-04-23 12:16 -2.65708 -54.67394 18586 ft 342 kts 121°
2026-04-23 12:16 -2.66575 -54.65184 19348 ft 344 kts 99°
2026-04-23 12:16 -2.66576 -54.62788 20069 ft 352 kts 79°
2026-04-23 12:16 -2.65679 -54.60440 20292 ft 375 kts 57°
2026-04-23 12:17 -2.64008 -54.58393 20807 ft 385 kts 49°
2026-04-23 12:17 -2.62176 -54.56415 21493 ft 389 kts 47°
2026-04-23 12:17 -2.60303 -54.54447 22211 ft 392 kts 47°
2026-04-23 12:17 -2.58411 -54.52461 22899 ft 396 kts 47°
2026-04-23 12:18 -2.56510 -54.50451 23537 ft 400 kts 47°
2026-04-23 12:18 -2.54596 -54.48408 24056 ft 404 kts 48°
2026-04-23 12:18 -2.53320 -54.47039 24406 ft 407 kts 48°
2026-04-23 12:18 -2.51389 -54.44959 24939 ft 410 kts 48°
2026-04-23 12:19 -2.49445 -54.42860 25468 ft 413 kts 48°
2026-04-23 12:19 -2.47490 -54.40746 25958 ft 417 kts 48°
2026-04-23 12:19 -2.45511 -54.38606 26434 ft 421 kts 48°
2026-04-23 12:19 -2.43516 -54.36449 26928 ft 424 kts 48°
2026-04-23 12:20 -2.41504 -54.34274 27431 ft 427 kts 48°
2026-04-23 12:20 -2.39478 -54.32083 27916 ft 430 kts 48°
2026-04-23 12:20 -2.36744 -54.29129 28535 ft 435 kts 48°
2026-04-23 12:20 -2.35380 -54.27654 28829 ft 437 kts 48°
2026-04-23 12:21 -2.33311 -54.25417 29267 ft 440 kts 48°
2026-04-23 12:21 -2.31222 -54.23160 29698 ft 444 kts 48°
2026-04-23 12:21 -2.29119 -54.20888 30106 ft 447 kts 48°
2026-04-23 12:21 -2.27073 -54.18542 30425 ft 449 kts 56°
2026-04-23 12:22 -2.25648 -54.15771 30771 ft 450 kts 72°
2026-04-23 12:22 -2.24975 -54.12720 31168 ft 450 kts 81°
2026-04-23 12:22 -2.24525 -54.09621 31627 ft 450 kts 83°
2026-04-23 12:22 -2.24123 -54.06526 32132 ft 449 kts 83°
2026-04-23 12:23 -2.23730 -54.03436 32662 ft 447 kts 83°
2026-04-23 12:23 -2.23330 -54.00354 33189 ft 446 kts 83°
2026-04-23 12:23 -2.22919 -53.97288 33729 ft 445 kts 83°
2026-04-23 12:23 -2.22497 -53.94230 34281 ft 442 kts 83°
2026-04-23 12:24 -2.22069 -53.91189 34739 ft 442 kts 83°
2026-04-23 12:24 -2.21637 -53.88153 35141 ft 442 kts 83°
2026-04-23 12:24 -2.21202 -53.85113 35540 ft 442 kts 82°
2026-04-23 12:24 -2.20767 -53.82077 35960 ft 441 kts 82°
2026-04-23 12:25 -2.20333 -53.79048 36375 ft 440 kts 82°
2026-04-23 12:25 -2.19899 -53.76020 36758 ft 440 kts 82°
2026-04-23 12:25 -2.19465 -53.72993 37013 ft 441 kts 82°
2026-04-23 12:25 -2.19030 -53.69953 36995 ft 441 kts 82°
2026-04-23 12:26 -2.18166 -53.63919 37002 ft 438 kts 82°
2026-04-23 12:26 -2.17303 -53.57895 37012 ft 437 kts 82°
2026-04-23 12:27 -2.16442 -53.51874 37008 ft 438 kts 82°
2026-04-23 12:27 -2.15579 -53.45848 37003 ft 438 kts 82°
2026-04-23 12:28 -2.14716 -53.39815 37002 ft 438 kts 82°
2026-04-23 12:28 -2.13852 -53.33784 37004 ft 438 kts 83°
2026-04-23 12:29 -2.12989 -53.27757 37002 ft 438 kts 83°
2026-04-23 12:29 -2.12126 -53.21733 36998 ft 438 kts 83°
2026-04-23 12:30 -2.11268 -53.15742 37007 ft 438 kts 83°
2026-04-23 12:30 -2.10404 -53.09717 37005 ft 438 kts 83°
2026-04-23 12:31 -2.09540 -53.03694 37003 ft 438 kts 83°
2026-04-23 12:31 -2.08676 -52.97667 37001 ft 438 kts 83°
2026-04-23 12:32 -2.07811 -52.91636 37005 ft 438 kts 83°
2026-04-23 12:32 -2.06944 -52.85597 37000 ft 439 kts 83°
2026-04-23 12:33 -2.06077 -52.79558 36999 ft 439 kts 83°
2026-04-23 12:33 -2.05210 -52.73517 36998 ft 439 kts 83°
2026-04-23 12:34 -2.04341 -52.67470 37001 ft 440 kts 83°
2026-04-23 12:34 -2.03472 -52.61420 37000 ft 440 kts 83°
2026-04-23 12:35 -2.02602 -52.55364 36998 ft 440 kts 83°
2026-04-23 12:35 -2.01732 -52.49312 36991 ft 440 kts 83°
2026-04-23 12:36 -2.00861 -52.43255 36996 ft 440 kts 83°
2026-04-23 12:36 -1.99990 -52.37199 36994 ft 440 kts 83°
2026-04-23 12:37 -1.99118 -52.31139 36995 ft 440 kts 83°
2026-04-23 12:37 -1.98246 -52.25081 36998 ft 440 kts 82°
2026-04-23 12:38 -1.97375 -52.19028 36991 ft 440 kts 82°
2026-04-23 12:38 -1.96505 -52.12983 36995 ft 439 kts 82°
2026-04-23 12:39 -1.95636 -52.06949 36993 ft 438 kts 82°
2026-04-23 12:39 -1.94767 -52.00920 36998 ft 437 kts 82°
2026-04-23 12:40 -1.93901 -51.94909 36993 ft 437 kts 82°
2026-04-23 12:40 -1.93036 -51.88908 36994 ft 436 kts 82°
2026-04-23 12:41 -1.92173 -51.82917 36995 ft 436 kts 82°
2026-04-23 12:41 -1.91309 -51.76923 36994 ft 436 kts 82°
2026-04-23 12:42 -1.90444 -51.70931 36996 ft 436 kts 82°
2026-04-23 12:42 -1.89579 -51.64931 36993 ft 436 kts 82°
2026-04-23 12:43 -1.88712 -51.58926 36994 ft 436 kts 82°
2026-04-23 12:43 -1.87846 -51.52922 36993 ft 437 kts 82°
2026-04-23 12:44 -1.86979 -51.46916 36996 ft 437 kts 82°
2026-04-23 12:44 -1.86111 -51.40906 36994 ft 437 kts 82°
2026-04-23 12:45 -1.85242 -51.34894 36994 ft 437 kts 82°
2026-04-23 12:45 -1.84373 -51.28879 36994 ft 437 kts 82°
2026-04-23 12:46 -1.83510 -51.22907 36999 ft 437 kts 82°
2026-04-23 12:46 -1.82642 -51.16896 36998 ft 437 kts 82°
2026-04-23 12:47 -1.81766 -51.10840 36999 ft 437 kts 82°
2026-04-23 12:47 -1.80902 -51.04863 36993 ft 437 kts 82°
2026-04-23 12:48 -1.80033 -50.98853 36992 ft 437 kts 82°
2026-04-23 12:48 -1.79569 -50.92812 37001 ft 436 kts 89°
2026-04-23 12:49 -1.79467 -50.86755 36988 ft 436 kts 90°
2026-04-23 12:49 -1.79348 -50.80693 36992 ft 436 kts 89°
2026-04-23 12:50 -1.79176 -50.74628 36993 ft 437 kts 89°
2026-04-23 12:50 -1.78980 -50.68549 36992 ft 438 kts 89°
2026-04-23 12:51 -1.78781 -50.62465 36989 ft 438 kts 89°
2026-04-23 12:51 -1.78582 -50.56371 36993 ft 439 kts 89°
2026-04-23 12:52 -1.78384 -50.50267 36995 ft 440 kts 89°
2026-04-23 12:52 -1.78186 -50.44157 36994 ft 440 kts 89°
2026-04-23 12:53 -1.78086 -50.41085 36534 ft 443 kts 89°
2026-04-23 12:53 -1.77986 -50.38019 35979 ft 440 kts 89°
2026-04-23 12:53 -1.77887 -50.34967 35341 ft 440 kts 89°
2026-04-23 12:53 -1.77787 -50.31914 34738 ft 438 kts 89°
2026-04-23 12:54 -1.77688 -50.28880 34243 ft 434 kts 88°
2026-04-23 12:54 -1.77591 -50.25880 33724 ft 431 kts 88°
2026-04-23 12:54 -1.77493 -50.22897 33209 ft 426 kts 88°
2026-04-23 12:54 -1.77397 -50.19953 32720 ft 422 kts 88°
2026-04-23 12:55 -1.77302 -50.17036 32243 ft 418 kts 88°
2026-04-23 12:55 -1.77208 -50.14149 31781 ft 414 kts 89°
2026-04-23 12:55 -1.77115 -50.11292 31327 ft 410 kts 88°
2026-04-23 12:55 -1.76914 -50.08465 30882 ft 406 kts 84°
2026-04-23 12:56 -1.76558 -50.05672 30447 ft 403 kts 82°
2026-04-23 12:56 -1.76148 -50.02910 29975 ft 401 kts 82°
2026-04-23 12:56 -1.75733 -50.00167 29468 ft 397 kts 82°
2026-04-23 12:56 -1.75331 -49.97452 28970 ft 393 kts 82°
2026-04-23 12:57 -1.74946 -49.94764 28487 ft 388 kts 82°
2026-04-23 12:57 -1.74574 -49.92109 28020 ft 384 kts 82°
2026-04-23 12:57 -1.74214 -49.89484 27560 ft 379 kts 83°
2026-04-23 12:57 -1.73860 -49.86885 27111 ft 376 kts 83°
2026-04-23 12:58 -1.73511 -49.84309 26675 ft 372 kts 83°
2026-04-23 12:58 -1.73166 -49.81763 26216 ft 369 kts 82°
2026-04-23 12:58 -1.72824 -49.79233 25775 ft 365 kts 82°
2026-04-23 12:58 -1.72485 -49.76729 25329 ft 363 kts 82°
2026-04-23 12:59 -1.72148 -49.74237 24875 ft 360 kts 82°
2026-04-23 12:59 -1.71813 -49.71764 24431 ft 358 kts 82°
2026-04-23 12:59 -1.71480 -49.69301 23977 ft 356 kts 82°
2026-04-23 12:59 -1.71148 -49.66855 23527 ft 355 kts 82°
2026-04-23 13:00 -1.70819 -49.64420 23008 ft 352 kts 82°
2026-04-23 13:00 -1.70492 -49.62007 22552 ft 348 kts 82°
2026-04-23 13:00 -1.70168 -49.59620 22109 ft 344 kts 82°
2026-04-23 13:00 -1.69849 -49.57264 21660 ft 341 kts 82°
2026-04-23 13:01 -1.69532 -49.54927 21227 ft 337 kts 82°
2026-04-23 13:01 -1.69324 -49.53393 20942 ft 335 kts 82°
2026-04-23 13:01 -1.68909 -49.50324 20370 ft 331 kts 82°
2026-04-23 13:01 -1.68704 -49.48814 20089 ft 330 kts 82°
2026-04-23 13:02 -1.68397 -49.46553 19668 ft 327 kts 82°
2026-04-23 13:02 -1.68093 -49.44308 19248 ft 325 kts 82°
2026-04-23 13:02 -1.67790 -49.42082 18874 ft 321 kts 82°
2026-04-23 13:02 -1.67490 -49.39877 18481 ft 319 kts 82°
2026-04-23 13:03 -1.67191 -49.37686 18027 ft 318 kts 82°
2026-04-23 13:03 -1.66894 -49.35507 17582 ft 316 kts 82°
2026-04-23 13:03 -1.66599 -49.33340 17142 ft 313 kts 82°
2026-04-23 13:03 -1.66307 -49.31194 16715 ft 310 kts 82°
2026-04-23 13:04 -1.66017 -49.29066 16301 ft 307 kts 82°
2026-04-23 13:04 -1.65730 -49.26959 15890 ft 305 kts 82°
2026-04-23 13:04 -1.65445 -49.24867 15480 ft 302 kts 82°
2026-04-23 13:04 -1.65162 -49.22795 15076 ft 300 kts 82°
2026-04-23 13:05 -1.64882 -49.20737 14673 ft 298 kts 82°
2026-04-23 13:05 -1.64603 -49.18689 14266 ft 296 kts 82°
2026-04-23 13:05 -1.64326 -49.16657 13859 ft 295 kts 82°
2026-04-23 13:05 -1.64050 -49.14631 13403 ft 294 kts 82°
2026-04-23 13:06 -1.63503 -49.10620 12546 ft 289 kts 82°
2026-04-23 13:06 -1.63233 -49.08641 12147 ft 286 kts 82°
2026-04-23 13:06 -1.62968 -49.06702 11745 ft 284 kts 82°
2026-04-23 13:07 -1.62697 -49.04724 11341 ft 282 kts 82°
2026-04-23 13:07 -1.62435 -49.02809 10949 ft 281 kts 82°
2026-04-23 13:07 -1.62172 -49.00882 10554 ft 280 kts 82°
2026-04-23 13:07 -1.61909 -48.98963 10238 ft 275 kts 82°
2026-04-23 13:08 -1.61652 -48.97088 10083 ft 271 kts 82°
2026-04-23 13:08 -1.61397 -48.95218 9863 ft 276 kts 82°
2026-04-23 13:08 -1.61136 -48.93315 9479 ft 275 kts 82°
2026-04-23 13:08 -1.60879 -48.91431 9124 ft 272 kts 82°
2026-04-23 13:09 -1.60624 -48.89571 8769 ft 269 kts 82°
2026-04-23 13:09 -1.60373 -48.87731 8430 ft 266 kts 82°
2026-04-23 13:09 -1.60123 -48.85909 8087 ft 263 kts 82°
2026-04-23 13:09 -1.59876 -48.84105 7741 ft 261 kts 82°
2026-04-23 13:10 -1.59631 -48.82312 7405 ft 259 kts 82°
2026-04-23 13:10 -1.59388 -48.80534 7071 ft 257 kts 82°
2026-04-23 13:10 -1.59146 -48.78767 6737 ft 256 kts 82°
2026-04-23 13:10 -1.58906 -48.77010 6404 ft 254 kts 83°
2026-04-23 13:11 -1.58670 -48.75287 6235 ft 242 kts 83°
2026-04-23 13:11 -1.58450 -48.73682 6105 ft 225 kts 82°
2026-04-23 13:11 -1.58245 -48.72185 5985 ft 210 kts 83°
2026-04-23 13:11 -1.58054 -48.70791 5877 ft 196 kts 82°
2026-04-23 13:12 -1.57874 -48.69477 5678 ft 188 kts 83°
2026-04-23 13:12 -1.57696 -48.68187 5371 ft 187 kts 81°
2026-04-23 13:12 -1.57164 -48.67021 5022 ft 189 kts 51°
2026-04-23 13:12 -1.56263 -48.66080 4733 ft 187 kts 47°
2026-04-23 13:13 -1.55344 -48.65178 4521 ft 178 kts 46°
2026-04-23 13:13 -1.54496 -48.64344 4372 ft 166 kts 47°
2026-04-23 13:13 -1.53679 -48.63535 4050 ft 165 kts 47°
2026-04-23 13:13 -1.52867 -48.62727 3727 ft 165 kts 47°
2026-04-23 13:14 -1.52052 -48.61916 3445 ft 164 kts 47°
2026-04-23 13:14 -1.51249 -48.61115 3172 ft 163 kts 47°
2026-04-23 13:14 -1.50458 -48.60324 2974 ft 160 kts 47°
2026-04-23 13:14 -1.49677 -48.59534 2792 ft 161 kts 48°
2026-04-23 13:15 -1.48886 -48.58732 2647 ft 164 kts 48°
2026-04-23 13:15 -1.48084 -48.57918 2461 ft 164 kts 46°
2026-04-23 13:15 -1.47284 -48.57107 2285 ft 162 kts 46°
2026-04-23 13:15 -1.46511 -48.56325 2120 ft 154 kts 47°
2026-04-23 13:16 -1.45770 -48.55575 1944 ft 150 kts 48°
2026-04-23 13:16 -1.45037 -48.54832 1835 ft 145 kts 47°
2026-04-23 13:16 -1.44338 -48.54123 1616 ft 140 kts 47°
2026-04-23 13:16 -1.43667 -48.53442 1419 ft 138 kts 47°
2026-04-23 13:17 -1.42995 -48.52760 1250 ft 138 kts 47°
2026-04-23 13:17 -1.42321 -48.52076 1067 ft 139 kts 46°
2026-04-23 13:17 -1.41640 -48.51386 894 ft 139 kts 46°
2026-04-23 13:17 -1.40969 -48.50698 703 ft 137 kts 47°
2026-04-23 13:18 -1.40333 -48.49999 498 ft 133 kts 46°
2026-04-23 13:18 -1.39682 -48.49381 324 ft 127 kts 44°
2026-04-23 13:18 -1.39043 -48.48750 168 ft 132 kts 45°
2026-04-23 13:18 -1.38402 -48.48097 43 ft 126 kts 45°
2026-04-23 13:19 -1.37856 -48.47547 39 ft 95 kts 45°
2026-04-23 13:19 -1.37480 -48.47165 42 ft 50 kts 45°
2026-04-23 13:19 -1.37324 -48.47008 44 ft 23 kts 45°
2026-04-23 13:19 -1.37208 -48.46940 41 ft 10 kts 27°
2026-04-23 13:20 -1.37233 -48.46913 43 ft 10 kts 218°
2026-04-23 13:20 -1.37299 -48.46978 44 ft 20 kts 225°
2026-04-23 13:20 -1.37438 -48.47121 42 ft 37 kts 226°
2026-04-23 13:20 -1.37647 -48.47337 40 ft 47 kts 225°
2026-04-23 13:21 -1.37879 -48.47566 39 ft 46 kts 224°
2026-04-23 13:21 -1.38091 -48.47778 41 ft 37 kts 227°
2026-04-23 13:21 -1.38260 -48.47956 43 ft 34 kts 226°
2026-04-23 13:21 -1.38424 -48.48116 42 ft 32 kts 223°
2026-04-23 13:22 -1.38579 -48.48270 42 ft 31 kts 226°
2026-04-23 13:22 -1.38673 -48.48303 41 ft 13 kts 115°
2026-04-23 13:22 -1.38676 -48.48212 43 ft 13 kts 87°
2026-04-23 13:22 -1.38675 -48.48122 43 ft 13 kts 89°
2026-04-23 13:23 -1.38674 -48.48034 43 ft 12 kts 89°
2026-04-23 13:23 -1.38672 -48.47949 42 ft 12 kts 89°
2026-04-23 13:23 -1.38670 -48.47865 42 ft 12 kts 89°
2026-04-23 13:23 -1.38689 -48.47793 42 ft 12 kts 162°
2026-04-23 13:24 -1.38769 -48.47801 42 ft 11 kts 185°
2026-04-23 13:24 -1.38848 -48.47808 42 ft 12 kts 185°
2026-04-23 13:24 -1.38940 -48.47815 42 ft 15 kts 185°
2026-04-23 13:24 -1.39040 -48.47824 42 ft 14 kts 184°
2026-04-23 13:25 -1.39092 -48.47842 42 ft 7 kts 250°
2026-04-23 13:25 -1.39089 -48.47886 42 ft 5 kts 275°
2026-04-23 13:25 -1.39088 -48.47897 42 ft 0 kts 275°